TimeMST,TemperatureF,Dew PointF,Humidity,Sea Level PressureIn,VisibilityMPH,Wind Direction,Wind SpeedMPH,Gust SpeedMPH,PrecipitationIn,Events,Conditions,WindDirDegrees,DateUTC
12:58 AM,31.3,28.9,91,30.29,10.0,ESE,8.1,-,N/A,,Clear,110,2012-11-24 07:58:00
1:58 AM,28.9,28.9,100,30.30,10.0,East,4.6,-,N/A,,Clear,80,2012-11-24 08:58:00
2:58 AM,28.8,28.8,100,30.28,10.0,East,4.6,-,N/A,,Clear,80,2012-11-24 09:58:00
3:58 AM,26.8,26.8,100,30.26,10.0,East,3.5,-,N/A,,Clear,100,2012-11-24 10:58:00
4:58 AM,27.5,27.5,100,30.26,10.0,East,5.8,-,N/A,,Clear,90,2012-11-24 11:58:00
5:58 AM,26.6,26.6,100,30.26,10.0,ESE,8.1,-,N/A,,Clear,110,2012-11-24 12:58:00
6:53 AM,30.2,30.2,100,30.20,10.0,ESE,8.1,-,N/A,,Mostly Cloudy,110,2012-11-24 13:53:00
6:58 AM,29.8,29.8,100,30.26,10.0,ESE,8.1,-,N/A,,Mostly Cloudy,110,2012-11-24 13:58:00
7:23 AM,32.0,32.0,100,30.20,10.0,East,9.2,-,N/A,,Scattered Clouds,100,2012-11-24 14:23:00
7:48 AM,32.0,32.0,100,30.20,10.0,East,9.2,-,N/A,,Mostly Cloudy,100,2012-11-24 14:48:00
7:58 AM,31.6,31.6,100,30.26,10.0,East,10.4,-,N/A,,Mostly Cloudy,100,2012-11-24 14:58:00
8:58 AM,36.3,33.3,89,30.25,10.0,East,11.5,-,N/A,,Overcast,100,2012-11-24 15:58:00
9:58 AM,40.1,30.7,69,30.25,10.0,SE,9.2,-,N/A,,Overcast,130,2012-11-24 16:58:00
10:58 AM,43.2,30.0,60,30.26,10.0,ESE,4.6,-,N/A,,Overcast,110,2012-11-24 17:58:00
11:58 AM,44.6,29.5,55,30.25,10.0,East,4.6,-,N/A,,Overcast,90,2012-11-24 18:58:00
12:58 PM,47.1,27.9,47,30.22,10.0,North,5.8,-,N/A,,Overcast,10,2012-11-24 19:58:00
1:58 PM,48.2,28.4,46,30.21,10.0,NW,6.9,-,N/A,,Overcast,320,2012-11-24 20:58:00
2:53 PM,48.2,28.4,46,30.15,10.0,NNW,10.4,-,N/A,,Overcast,340,2012-11-24 21:53:00
2:58 PM,48.2,28.6,47,30.19,10.0,NW,10.4,-,N/A,,Overcast,320,2012-11-24 21:58:00
3:33 PM,48.2,32.0,54,30.14,10.0,NW,5.8,-,N/A,,Overcast,310,2012-11-24 22:33:00
3:38 PM,48.2,32.0,54,30.14,10.0,WNW,5.8,-,N/A,,Overcast,300,2012-11-24 22:38:00
3:48 PM,48.2,33.8,58,30.14,10.0,WNW,5.8,-,N/A,,Overcast,290,2012-11-24 22:48:00
3:53 PM,48.2,32.0,54,30.14,10.0,WSW,9.2,-,N/A,,Overcast,250,2012-11-24 22:53:00
3:58 PM,47.8,32.0,54,30.18,10.0,WSW,9.2,-,N/A,,Overcast,250,2012-11-24 22:58:00
4:03 PM,46.4,32.0,57,30.13,10.0,WSW,8.1,-,N/A,,Overcast,250,2012-11-24 23:03:00
4:33 PM,44.6,32.0,61,30.13,10.0,WSW,10.4,-,N/A,,Overcast,250,2012-11-24 23:33:00
4:58 PM,43.0,30.6,62,30.17,10.0,West,9.2,-,N/A,,Overcast,260,2012-11-24 23:58:00
5:58 PM,40.8,32.0,71,30.16,10.0,West,9.2,-,N/A,,Overcast,280,2012-11-25 00:58:00
6:58 PM,40.6,37.0,87,30.14,10.0,West,5.8,-,N/A,,Overcast,280,2012-11-25 01:58:00
7:08 PM,41.0,39.2,93,30.09,10.0,WNW,9.2,-,N/A,,Overcast,290,2012-11-25 02:08:00
7:28 PM,41.0,39.2,93,30.09,10.0,WNW,9.2,-,N/A,,Overcast,290,2012-11-25 02:28:00
7:33 PM,41.0,39.2,93,30.08,10.0,West,9.2,-,N/A,,Overcast,280,2012-11-25 02:33:00
7:58 PM,41.4,39.7,94,30.13,10.0,WNW,10.4,-,N/A,,Overcast,290,2012-11-25 02:58:00
8:58 PM,41.2,38.1,89,30.11,10.0,West,6.9,-,N/A,,Overcast,280,2012-11-25 03:58:00
9:53 PM,39.2,39.2,100,30.06,10.0,East,2.3,-,N/A,,Overcast,90,2012-11-25 04:53:00
9:58 PM,39.6,38.5,96,30.09,10.0,SSE,2.3,-,N/A,,Overcast,150,2012-11-25 04:58:00
10:18 PM,39.2,39.2,100,30.05,10.0,Calm,Calm,-,N/A,,Mostly Cloudy,0,2012-11-25 05:18:00
10:33 PM,39.2,39.2,100,30.05,10.0,ENE,2.3,-,N/A,,Overcast,60,2012-11-25 05:33:00
10:58 PM,39.7,39.7,100,30.07,10.0,NNE,3.5,-,0.00,,Overcast,30,2012-11-25 05:58:00
11:58 PM,40.3,40.3,100,30.05,10.0,NNE,4.6,-,0.00,,Overcast,20,2012-11-25 06:58:00